Regional Weather Roundup
Issued by NWS Columbia, SC

Home | Current Version | Previous Version | Text Only | Print | Product List | Glossary On
Versions: 1 2 3 4 5 6 7 8 9 10 11 12 13 14 15 16 17 18 19 20 21 22 23 24 25 26 27 28 29 30 31 32 33 34 35 36 37 38 39 40 41 42 43 44 45 46 47 48 49 50
000
ASUS42 KCAE 232110
RWRCAE
REGIONAL WEATHER ROUNDUP
NATIONAL WEATHER SERVICE COLUMBIA SC
500 PM EDT MON APR 23 2018

NOTE: "FAIR" INDICATES FEW OR NO CLOUDS BELOW 12,000 FEET WITH NO
SIGNIFICANT WEATHER AND/OR OBSTRUCTIONS TO VISIBILITY.

NOT ALL STATIONS ARE QUALITY CONTROLLED BY THE NATIONAL
WEATHER SERVICE. USE DATA WITH CAUTION...ESPECIALLY
DEWPOINT OBSERVATIONS.

SCZ001>056-GAZ040-063>065-077-232200-
...UPSTATE SOUTH CAROLINA...

CITY           SKY/WX    TMP DP  RH WIND       PRES   REMARKS
ANDERSON       CLOUDY    63  57  81 E17G24    29.99F
LIBERTY        CLOUDY    59  57  91 E14G23    30.01F
SPARTANBURG    HVY RAIN  55  54  94 NE8       30.07F
CLEMSON        CLOUDY    60  55  83 E14G22    30.01F
GREENVILLE     CLOUDY    59  57  93 NE17G28   30.05F
GREENWOOD      CLOUDY    61  60  97 NE9       30.01F
GREER          LGT RAIN  57  56  96 NE15G23   30.06F
ROCK HILL      HVY RAIN  58  58 100 NE3       30.07F VSB 1
CHESTER        RAIN      59  59 100 N10       30.06F
LAURENS        LGT RAIN  59  59 100 NE10G16   30.03F


...CENTRAL SOUTH CAROLINA...

CITY           SKY/WX    TMP DP  RH WIND       PRES   REMARKS
COLUMBIA APT   LGT RAIN  65  64  97 E17       30.01R FOG
COLUMBIA OWENS LGT RAIN  64  61  90 SE10G22   30.02S FOG
MCENTIRE ANGB  LGT RAIN  63  63 100 E12G18    30.03R FOG
ORANGEBURG     HVY RAIN  64  63  96 E5        30.01R FOG
SUMTER SHAW    DRIZZLE   64  60  90 E15G22    30.00F
NEWBERRY       RAIN      61  61 100 N9        30.06F
AIKEN          DRIZZLE   63  63 100 E8        30.01F
BARNWELL       CLOUDY    68  66  94 E12       29.97S
MANNING        LGT RAIN  59  59 100 SE8G17    30.02F
CAMDEN         LGT RAIN  63  61  94 E14G21    30.06S
LANCASTER        N/A     61  61 100 E13G21    30.05S FOG
WINNSBORO      DRIZZLE   61  59  94 E10G18    30.02F


...EASTERN AND COASTAL SOUTH CAROLINA...

CITY           SKY/WX    TMP DP  RH WIND       PRES   REMARKS
MYRTLE BEACH   LGT RAIN  64  61  90 E16G29    30.12F
N MYRTLE BCH   LGT RAIN  64  60  87 E20G30    30.12F
CONWAY         DRIZZLE   63  61  94 E15G23    30.10F
MARION         LGT RAIN  61  59  94 E20G29    30.10F
HARTSVILLE     DRIZZLE   59  59 100 E17G26    30.07S
FLORENCE       LGT RAIN  63  60  90 E18G33    30.07F
DARLINGTON     LGT RAIN  61  59  93 E20G30    30.09F
CHARLESTON APT LGT RAIN  67  65  93 E22G32    30.00F FOG
MOUNT PLEASANT RAIN      64  64 100 E17G29    30.01F
WALTERBORO     DRIZZLE   64  64 100 E10G23    29.98F
BEAUFORT       LGT RAIN  68  68 100 SE12      29.95  FOG


...EASTERN GEORGIA...

CITY           SKY/WX    TMP DP  RH WIND       PRES   REMARKS
AUGUSTA BUSH F CLOUDY    68  65  90 E8        29.94F
AUGUSTA DANIEL CLOUDY    68  65  90 E9        29.95F
THOMSON        CLOUDY    67  62  84 SE13      29.98F
WASHINGTON     CLOUDY    66  61  82 E13G20    29.94
CLAXTON        MOCLDY    77  70  78 E8        29.91F
SYLVANIA       MOCLDY    75  72  88 SE7       29.93F
STATESBORO     PTSUNNY   78  65  64 SE8       29.91F
SAVANNAH       PTSUNNY   71  70  96 SE13      29.93


...SOUTHERN NORTH CAROLINA...

CITY           SKY/WX    TMP DP  RH WIND       PRES   REMARKS
CHARLOTTE      HVY RAIN  58  57  97 NE10G23   30.09F VSB 1
MONROE         LGT RAIN  59  58  96 E12G18    30.07F
WADESBORO      CLOUDY    61  55  82 E10G20    30.11S
ROCKINGHAM     LGT RAIN  62  57  84 E20G31    30.11F
RUTHERFORDTON  RAIN      56  56 100 E9        30.12F
ASHEVILLE      CLOUDY    56  50  80 SE12G30   30.07F

$$



USA.gov is the U.S. government's official web portal to all federal, state and local government web resources and services.